| time (UTC) | temp F | wind direction | speed MPH | gust MPH | rain 1hr in | rain 24hr in | rain mn in | humidity % | barometer mb |
| 20260505091504 | 55 | 13 | 6.0 | 13.0 | 0.00 | 0.00 | 0.00 | 68 | 1011.8 |
| 20260505091004 | 56 | 3 | 3.0 | 12.0 | 0.00 | 0.00 | 0.00 | 69 | 1011.7 |
| 20260505090004 | 55 | 47 | 5.0 | 13.0 | 0.00 | 0.00 | 0.00 | 71 | 1011.7 |
| 20260505085504 | 55 | 56 | 5.0 | 10.0 | 0.00 | 0.00 | 0.00 | 73 | 1011.7 |
| 20260505084009 | 54 | 58 | 5.0 | 12.0 | 0.00 | 0.00 | 0.00 | 73 | 1011.7 |
| 20260505083509 | 54 | 81 | 5.0 | 13.0 | 0.00 | 0.00 | 0.00 | 74 | 1011.8 |
| 20260505080008 | 52 | 27 | 6.0 | 12.0 | 0.00 | 0.00 | 0.00 | 79 | 1011.6 |
| 20260505074508 | 52 | 357 | 6.0 | 12.0 | 0.00 | 0.00 | 0.00 | 79 | 1011.7 |
| 20260505074008 | 52 | 57 | 4.0 | 8.0 | 0.00 | 0.00 | 0.00 | 79 | 1011.8 |
| 20260505071508 | 51 | 28 | 5.0 | 10.0 | 0.00 | 0.00 | 0.00 | 82 | 1012.0 |
| 20260505071008 | 51 | 356 | 5.0 | 13.0 | 0.00 | 0.00 | 0.00 | 83 | 1012.1 |
| 20260505064508 | 51 | 3 | 3.0 | 8.0 | 0.00 | 0.00 | 0.00 | 84 | 1012.2 |
| 20260505064008 | 51 | 15 | 4.0 | 9.0 | 0.00 | 0.00 | 0.00 | 84 | 1012.2 |
| 20260505062507 | 51 | 355 | 4.0 | 8.0 | 0.00 | 0.00 | 0.00 | 85 | 1012.3 |
| 20260505062008 | 51 | 20 | 5.0 | 8.0 | 0.00 | 0.00 | 0.00 | 85 | 1012.2 |
| 20260505061508 | 50 | 342 | 5.0 | 12.0 | 0.00 | 0.00 | 0.00 | 85 | 1012.2 |
| 20260505060008 | 50 | 347 | 5.0 | 10.0 | 0.00 | 0.00 | 0.00 | 85 | 1012.4 |
| 20260505055509 | 50 | 353 | 4.0 | 9.0 | 0.00 | 0.00 | 0.00 | 85 | 1012.3 |
| 20260505055008 | 50 | 0 | 3.0 | 9.0 | 0.00 | 0.00 | 0.00 | 85 | 1012.3 |
| 20260505052008 | 50 | 4 | 3.0 | 7.0 | 0.00 | 0.00 | 0.00 | 86 | 1012.2 |
| 20260505051508 | 50 | 6 | 5.0 | 9.0 | 0.00 | 0.00 | 0.00 | 86 | 1012.1 |
| 20260505035507 | 50 | 26 | 4.0 | 7.0 | 0.00 | 0.01 | 0.00 | 86 | 1012.1 |
| 20260505035008 | 50 | 29 | 3.0 | 8.0 | 0.00 | 0.01 | 0.00 | 86 | 1012.1 |
| 20260505034508 | 50 | 20 | 3.0 | 10.0 | 0.00 | 0.01 | 0.00 | 86 | 1012.1 |
| 20260505034007 | 50 | 8 | 5.0 | 7.0 | 0.00 | 0.01 | 0.00 | 85 | 1012.1 |
| 20260505033507 | 50 | 9 | 5.0 | 9.0 | 0.00 | 0.01 | 0.00 | 85 | 1012.1 |
| 20260505033008 | 50 | 33 | 3.0 | 7.0 | 0.00 | 0.01 | 0.00 | 85 | 1012.1 |
| 20260505032508 | 50 | 29 | 3.0 | 9.0 | 0.00 | 0.01 | 0.00 | 85 | 1012.2 |
| 20260505032008 | 50 | 19 | 3.0 | 9.0 | 0.00 | 0.01 | 0.00 | 85 | 1012.2 |
| 20260505031507 | 50 | 50 | 3.0 | 6.0 | 0.00 | 0.01 | 0.00 | 86 | 1012.2 |
| 20260505031008 | 50 | 93 | 3.0 | 9.0 | 0.00 | 0.01 | 0.00 | 86 | 1012.2 |
| 20260505030007 | 50 | 74 | 5.0 | 8.0 | 0.00 | 0.01 | 0.00 | 86 | 1012.2 |
| 20260505025507 | 50 | 39 | 2.0 | 7.0 | 0.00 | 0.01 | 0.00 | 86 | 1012.2 |
| 20260505024508 | 50 | 16 | 3.0 | 8.0 | 0.00 | 0.01 | 0.00 | 86 | 1012.2 |
| 20260505024008 | 50 | 17 | 3.0 | 5.0 | 0.00 | 0.01 | 0.00 | 86 | 1012.2 |
| 20260505022507 | 50 | 17 | 4.0 | 12.0 | 0.00 | 0.01 | 0.00 | 86 | 1012.3 |
| 20260505022007 | 51 | 9 | 4.0 | 9.0 | 0.00 | 0.01 | 0.00 | 86 | 1012.3 |
| 20260505021507 | 51 | 356 | 5.0 | 12.0 | 0.00 | 0.01 | 0.00 | 86 | 1012.5 |
| 20260505021008 | 51 | 0 | 4.0 | 12.0 | 0.00 | 0.01 | 0.00 | 85 | 1012.5 |
| 20260505015507 | 51 | 0 | 5.0 | 9.0 | 0.00 | 0.01 | 0.00 | 85 | 1012.6 |
| 20260505015007 | 51 | 59 | 3.0 | 10.0 | 0.00 | 0.01 | 0.00 | 85 | 1012.6 |
| 20260505013007 | 51 | 30 | 6.0 | 12.0 | 0.00 | 0.01 | 0.00 | 85 | 1012.6 |
| 20260505012507 | 51 | 0 | 5.0 | 12.0 | 0.00 | 0.01 | 0.00 | 84 | 1012.6 |
| 20260505011007 | 51 | 22 | 6.0 | 12.0 | 0.00 | 0.01 | 0.00 | 85 | 1012.7 |
| 20260505010007 | 51 | 13 | 6.0 | 12.0 | 0.00 | 0.01 | 0.00 | 85 | 1012.7 |
| 20260505003007 | 52 | 319 | 5.0 | 10.0 | 0.00 | 0.01 | 0.00 | 85 | 1012.9 |
| 20260505002507 | 52 | 356 | 5.0 | 10.0 | 0.00 | 0.01 | 0.00 | 85 | 1013.0 |
| 20260504235507 | 53 | 4 | 3.0 | 9.0 | 0.00 | 0.01 | 0.00 | 86 | 1013.2 |
| 20260504235007 | 53 | 17 | 4.0 | 9.0 | 0.00 | 0.01 | 0.00 | 86 | 1013.2 |
| 20260504233007 | 53 | 352 | 5.0 | 9.0 | 0.00 | 0.01 | 0.00 | 85 | 1013.2 |
| 20260504231506 | 53 | 4 | 5.0 | 10.0 | 0.00 | 0.01 | 0.00 | 85 | 1013.2 |
| 20260504231007 | 53 | 4 | 6.0 | 14.0 | 0.00 | 0.01 | 0.00 | 85 | 1013.3 |
| 20260504225007 | 53 | 356 | 7.0 | 12.0 | 0.00 | 0.01 | 0.00 | 85 | 1013.5 |
| 20260504224506 | 53 | 19 | 7.0 | 12.0 | 0.00 | 0.01 | 0.00 | 86 | 1013.4 |
| 20260504224007 | 53 | 349 | 8.0 | 12.0 | 0.00 | 0.01 | 0.00 | 86 | 1013.4 |
| 20260504223506 | 53 | 2 | 6.0 | 12.0 | 0.00 | 0.01 | 0.00 | 86 | 1013.4 |
| 20260504223007 | 54 | 21 | 6.0 | 12.0 | 0.00 | 0.01 | 0.00 | 86 | 1013.4 |
| 20260504220007 | 54 | 0 | 5.0 | 10.0 | 0.00 | 0.01 | 0.00 | 86 | 1013.6 |
| 20260504214006 | 55 | 19 | 4.0 | 9.0 | 0.00 | 0.01 | 0.01 | 86 | 1013.7 |
| 20260504213507 | 55 | 18 | 5.0 | 9.0 | 0.00 | 0.01 | 0.01 | 86 | 1013.7 |
| 20260504212506 | 55 | 349 | 4.0 | 8.0 | 0.00 | 0.01 | 0.01 | 86 | 1013.7 |
| 20260504212007 | 55 | 349 | 5.0 | 10.0 | 0.00 | 0.01 | 0.01 | 86 | 1013.7 |
| 20260504211506 | 55 | 13 | 3.0 | 8.0 | 0.00 | 0.01 | 0.01 | 87 | 1013.7 |
| 20260504210006 | 55 | 356 | 5.0 | 7.0 | 0.00 | 0.01 | 0.01 | 87 | 1013.7 |
| 20260504205506 | 55 | 9 | 5.0 | 8.0 | 0.00 | 0.01 | 0.01 | 87 | 1013.7 |
| 20260504205007 | 55 | 355 | 4.0 | 7.0 | 0.00 | 0.01 | 0.01 | 87 | 1013.7 |
| 20260504204506 | 55 | 5 | 4.0 | 7.0 | 0.00 | 0.01 | 0.01 | 86 | 1013.7 |
| 20260504202006 | 55 | 3 | 3.0 | 6.0 | 0.00 | 0.01 | 0.01 | 85 | 1013.7 |
| 20260504201506 | 55 | 3 | 5.0 | 10.0 | 0.00 | 0.01 | 0.01 | 85 | 1013.7 |
| 20260504193506 | 56 | 25 | 5.0 | 10.0 | 0.00 | 0.01 | 0.01 | 83 | 1013.2 |
| 20260504193006 | 57 | 40 | 5.0 | 8.0 | 0.00 | 0.01 | 0.01 | 83 | 1013.2 |
| 20260504192006 | 57 | 19 | 3.0 | 5.0 | 0.00 | 0.01 | 0.01 | 83 | 1013.2 |
| 20260504191506 | 57 | 19 | 3.0 | 8.0 | 0.00 | 0.01 | 0.01 | 82 | 1013.1 |
| 20260504190006 | 58 | 20 | 3.0 | 6.0 | 0.00 | 0.01 | 0.01 | 81 | 1013.0 |
| 20260504185506 | 59 | 3 | 4.0 | 8.0 | 0.00 | 0.01 | 0.01 | 83 | 1013.0 |
| 20260504185006 | 59 | 3 | 3.0 | 6.0 | 0.00 | 0.01 | 0.01 | 81 | 1013.0 |
| 20260504184506 | 59 | 3 | 3.0 | 7.0 | 0.00 | 0.01 | 0.01 | 80 | 1012.9 |
| 20260504183006 | 59 | 343 | 5.0 | 7.0 | 0.00 | 0.01 | 0.01 | 81 | 1012.9 |
| 20260504181506 | 59 | 8 | 5.0 | 9.0 | 0.00 | 0.01 | 0.01 | 83 | 1012.8 |
| 20260504181006 | 59 | 329 | 2.0 | 7.0 | 0.00 | 0.01 | 0.01 | 83 | 1012.8 |
| 20260504180006 | 59 | 324 | 3.0 | 8.0 | 0.00 | 0.01 | 0.01 | 83 | 1012.8 |
| 20260504175506 | 59 | 331 | 5.0 | 7.0 | 0.00 | 0.01 | 0.01 | 82 | 1012.9 |
| 20260504175006 | 60 | 331 | 3.0 | 8.0 | 0.00 | 0.01 | 0.01 | 82 | 1012.8 |
| 20260504174506 | 60 | 342 | 2.0 | 8.0 | 0.00 | 0.01 | 0.01 | 82 | 1012.8 |
| 20260504174006 | 60 | 342 | 3.0 | 8.0 | 0.00 | 0.01 | 0.01 | 82 | 1012.8 |
| 20260504173506 | 60 | 316 | 3.0 | 7.0 | 0.00 | 0.01 | 0.01 | 81 | 1012.8 |
| 20260504173006 | 60 | 343 | 5.0 | 7.0 | 0.00 | 0.01 | 0.01 | 81 | 1012.9 |
| 20260504172505 | 60 | 347 | 3.0 | 6.0 | 0.00 | 0.01 | 0.01 | 82 | 1012.8 |
| 20260504172006 | 60 | 351 | 3.0 | 8.0 | 0.00 | 0.01 | 0.01 | 82 | 1012.9 |
| 20260504171506 | 60 | 0 | 2.0 | 7.0 | 0.00 | 0.01 | 0.01 | 82 | 1012.9 |
| 20260504171006 | 60 | 342 | 3.0 | 8.0 | 0.00 | 0.01 | 0.01 | 82 | 1012.9 |